Location: St. Louis
(38.6270°N, 90.1994°W)
Time: 18:20:45
(UTC-06:00)

Vanguard 3 - Visible Passes

Search period start: 29 November 2021 00:00
Search period end: 09 December 2021 00:00
Orbit: 509 x 3260 km, 33.3° (Epoch: 29 November)

Date Brightness Start Highest point End Pass type
(mag) Time Alt. Az. Time Alt. Az. Time Alt. Az.
29 Nov 11.1 02:04:08 20° SSE 02:11:20 25° SE 02:24:18 10° E visible
29 Nov 10.3 04:08:48 12° SW 04:26:18 50° SSE 04:40:09 10° E visible
29 Nov 9.8 06:23:24 10° WSW 06:41:36 69° S 06:52:40 10° E visible
30 Nov 11.4 00:55:18 15° SE 00:55:22 15° SE 01:04:08 10° ESE visible
30 Nov 10.6 02:59:57 26° SSW 03:09:40 40° SSE 03:24:30 10° E visible
30 Nov 10.0 05:05:56 10° WSW 05:25:10 64° SSE 05:38:17 10° E visible
01 Dec 10.9 01:50:49 28° SSE 01:53:17 29° SE 02:07:34 10° E visible
01 Dec 10.3 03:55:26 25° SW 04:08:23 55° SSE 04:23:18 10° E visible
01 Dec 9.8 06:05:08 10° WSW 06:24:05 71° S 06:36:04 10° E visible
02 Dec 11.3 00:41:29 16° ESE 00:41:29 16° ESE 00:48:08 10° E visible
02 Dec 10.5 02:46:04 38° S 02:51:35 44° SSE 03:07:31 10° E visible
02 Dec 10.0 04:50:41 17° WSW 05:07:23 67° SSE 05:21:30 10° E visible
03 Dec 10.8 01:36:32 32° SE 01:36:32 32° SE 01:50:32 10° E visible
03 Dec 10.2 03:41:07 37° SW 03:50:22 59° SSE 04:06:18 10° E visible
03 Dec 9.9 05:46:56 10° WSW 06:06:27 73° S 06:19:22 10° E visible
04 Dec 11.3 00:26:51 16° ESE 00:26:51 16° ESE 00:31:30 10° E visible
04 Dec 10.3 02:31:25 47° SSE 02:33:25 48° SSE 02:50:20 10° E visible
04 Dec 10.0 04:36:00 27° WSW 04:49:29 70° S 05:04:35 10° E visible
05 Dec 10.8 01:21:36 32° ESE 01:21:36 32° ESE 01:33:17 10° E visible
05 Dec 10.1 03:26:09 49° SSW 03:32:16 62° SSE 03:49:10 10° E visible
05 Dec 9.9 05:30:43 14° W 05:48:42 74° S 06:02:33 10° E visible
06 Dec 11.4 00:11:40 14° E 00:11:40 14° E 00:14:27 10° E visible
06 Dec 10.3 02:16:13 51° SE 02:16:13 51° SE 02:33:00 10° E visible
06 Dec 10.0 04:20:46 36° WSW 04:31:30 72° S 04:47:34 10° E visible
06 Dec 9.9 06:28:28 10° W 06:47:40 69° SSW 07:00:12 10° ESE visible
07 Dec 10.9 01:06:12 30° ESE 01:06:12 30° ESE 01:15:48 10° E visible
07 Dec 10.0 03:10:44 60° SSW 03:14:07 65° SSE 03:31:54 10° E visible
07 Dec 10.0 05:15:17 21° W 05:30:50 74° S 05:45:39 10° ESE visible
07 Dec 11.5 23:56:07 12° E 23:56:07 12° E 23:57:05 10° E visible
08 Dec 10.3 02:00:38 51° SE 02:00:38 51° SE 02:15:29 10° E visible
08 Dec 10.0 04:05:11 46° WSW 04:13:27 73° S 04:30:26 10° E visible
08 Dec 10.0 06:10:20 10° W 06:29:52 67° SSW 06:43:19 10° ESE visible
